Cloud_Cover
80 98 95 5 4 5 5 5 21 5 5 4 86 14 5 0 0 0 0 0 0 23 5 5 4 42 3 45 100 100 100 100 91 100 100 100 100 100 100 100 100 100 100 100
91 100 82 33 5 2 4 5 5 5 5 5 5 3 0 0 2 0 5 5 5 5 5 39 61 93 34 93 100 100 100 99 100 100 100 100 100 100 100 100 100 100 100 100
100 100 100 42 24 7 4 25 5 5 5 6 4 5 5 5 0 0 5 1 2 1 2 2 5 10 66 98 100 100 100 100 100 100 100 100 100 100 100 100 100 100 100 100
82 24 68 8 12 38 34 75 17 5 96 5 2 5 5 5 5 0 0 4 5 5 5 5 6 8 98 100 100 100 100 100 100 100 100 100 100 100 100 100 100 100 100 100
82 8 5 14 26 5 59 12 6 5 5 5 5 5 5 25 5 5 1 44 2 5 5 12 5 18 100 97 100 100 100 100 98 100 100 100 100 100 100 100 100 100 100 100
6 91 63 94 15 12 51 100 98 67 12 5 5 4 5 5 5 2 5 5 5 5 3 4 5 97 100 49 100 100 100 100 78 100 100 100 100 100 100 100 100 100 100 100
60 13 5 74 70 86 100 97 14 5 42 13 5 4 5 5 5 77 1 0 6 2 1 1 5 69 100 56 100 100 100 100 99 72 93 100 100 100 100 100 100 100 100 100
96 16 44 100 23 98 100 10 6 16 81 5 5 5 5 5 2 5 0 0 1 13 94 84 3 1 1 8 46 14 63 8 7 4 80 100 100 100 100 100 100 100 100 100
43 36 42 89 70 100 100 5 52 81 27 5 2 5 5 25 9 5 2 0 0 6 97 100 98 82 15 27 3 2 3 44 72 98 89 100 100 100 100 100 100 100 100 100
100 84 100 93 90 48 32 8 98 27 6 5 5 8 5 5 5 34 5 5 5 4 72 70 100 80 100 100 100 96 63 100 100 100 100 100 100 100 100 100 100 100 100 100
100 100 100 100 14 0 0 4 5 9 30 5 1 0 2 5 12 43 5 4 4 22 50 72 89 85 27 85 100 100 100 100 100 100 100 100 100 100 100 100 100 100 100 100
100 100 97 5 0 0 0 4 5 83 99 4 0 4 5 5 5 5 5 5 6 65 39 54 99 71 60 45 77 48 66 90 100 100 100 100 100 100 100 100 100 100 100 100
100 84 5 3 0 0 3 0 1 5 67 11 5 5 5 2 1 9 12 6 34 18 57 48 66 92 40 49 41 5 5 12 97 100 99 46 62 100 100 100 100 100 100 100
5 5 4 0 0 0 1 0 6 39 9 68 3 0 0 0 0 5 5 12 5 5 5 40 67 62 11 28 38 7 4 0 5 76 100 100 92 73 35 6 37 53 59 51
12 4 0 0 0 0 1 0 0 5 53 16 5 0 0 0 0 5 5 5 5 5 5 32 58 5 5 5 5 5 3 0 3 5 0 4 51 100 100 88 100 48 4 2
4 0 2 2 0 0 0 5 5 12 92 12 48 0 2 0 0 1 5 5 60 53 5 38 5 5 5 5 1 1 4 5 5 4 0 3 5 5 39 9 91 100 63 95
2 0 3 3 3 7 1 4 5 5 17 4 12 5 0 4 0 0 0 0 4 5 84 50 5 5 5 5 2 0 1 5 4 1 0 4 5 92 5 0 0 1 0 1
0 0 0 2 4 1 2 5 5 5 5 4 5 5 5 0 1 0 0 2 4 5 5 5 5 2 3 5 3 0 0 0 1 2 0 2 5 26 5 5 0 0 2 5
0 0 0 1 3 20 5 6 38 9 5 5 50 55 5 2 1 10 5 5 5 5 10 5 4 5 5 5 5 5 1 4 0 3 3 4 5 5 5 3 0 0 3 5
1 5 5 4 5 12 30 72 15 97 92 5 100 6 5 0 4 5 5 7 16 5 5 5 5 5 5 5 5 5 5 5 5 5 5 5 0 0 2 5 5 5 5 5
5 18 33 25 5 15 5 34 98 99 75 35 68 5 5 5 5 5 5 5 25 9 5 5 29 12 5 5 5 5 13 6 5 5 5 5 5 5 5 5 7 20 26 13
24 21 11 70 52 25 27 90 83 49 6 5 5 5 5 6 5 7 5 40 70 69 26 6 5 5 42 13 5 5 15 24 20 5 5 5 5 5 11 69 64 39 68 71
75 61 17 5 8 86 94 99 46 40 9 5 5 5 5 8 12 54 5 18 46 82 95 82 49 15 12 46 6 5 5 37 35 42 75 73 14 5 12 66 68 54 5 5
97 79 37 5 46 28 5 5 8 15 19 5 5 5 5 11 42 7 63 56 53 37 88 100 100 99 42 24 40 46 66 83 97 90 36 32 8 5 5 6 5 6 5 5
100 100 86 38 5 10 8 36 22 6 37 14 5 38 90 89 64 21 93 43 31 9 30 63 100 100 100 100 85 72 54 63 79 68 98 91 83 40 5 5 5 5 7 6
100 100 96 30 19 98 84 14 21 64 40 29 90 99 73 99 65 66 100 96 61 37 34 54 99 100 100 100 100 74 93 94 100 100 88 70 72 63 51 52 8 5 5 10
100 100 23 73 63 96 100 97 48 63 90 90 80 81 100 56 100 55 88 98 77 61 58 72 92 91 91 100 91 77 58 46 98 100 81 70 68 81 68 22 25 53 82 92